When you browse on this site, cookies collect data to enhance your experience and personalize the content and advertising you see.
Visit our Privacy Policy to learn more. By continuing to use the site, you agree to this use of cookies and data.
  • In Romania
  • List of Countries
  • For 7 days
  • Water Temperature
  • Satellite Maps
  • Weather Map
  • Weather Widgets
  • user-avatar
    Login

    Hourly Weather Szeged

    Today, 13 December, Thursday

    Time Temperature Precipitation Wind Pressure Humidity
    00:00 +1°C° 0 mm 1 mps 759 mmHg 88%
    01:00 +1°C° 0 mm 1 mps 759 mmHg 89%
    02:00 +1°C° 0 mm 1 mps 759 mmHg 89%
    03:00 +1°C° 0 mm 1 mps 759 mmHg 90%
    04:00 0°C° 0 mm 1 mps 759 mmHg 90%
    05:00 0°C° 0 mm 1 mps 759 mmHg 90%
    06:00 0°C° 0 mm 1 mps 759 mmHg 90%
    07:00 0°C° 0 mm 1 mps 759 mmHg 91%
    08:00 +1°C° 0 mm 1 mps 759 mmHg 85%
    09:00 +2°C° 0 mm 1 mps 759 mmHg 80%
    10:00 +3°C° 0 mm 1 mps 759 mmHg 75%
    11:00 +3°C° 0 mm 1 mps 759 mmHg 71%
    12:00 +4°C° 0 mm 1 mps 758 mmHg 66%
    13:00 +5°C° 0 mm 1 mps 758 mmHg 62%
    14:00 +4°C° 0 mm 1 mps 758 mmHg 66%
    15:00 +2°C° 0 mm 2 mps 758 mmHg 70%
    16:00 +1°C° 0 mm 2 mps 758 mmHg 75%
    17:00 -1°C° 0 mm 2 mps 758 mmHg 77%
    18:00 -1°C° 0 mm 2 mps 758 mmHg 79%
    19:00 -1°C° 0 mm 2 mps 758 mmHg 82%
    20:00 -2°C° 0 mm 2 mps 758 mmHg 82%
    21:00 -2°C° 0 mm 2 mps 758 mmHg 82%
    22:00 -2°C° 0 mm 2 mps 758 mmHg 82%
    23:00 -2°C° 0 mm 2 mps 758 mmHg 82%

    Tomorrow, 14 December, Friday

    Time Temperature Precipitation Wind Pressure Humidity
    00:00 -2°C° 0 mm 2 mps 758 mmHg 82%
    01:00 -2°C° 0 mm 3 mps 758 mmHg 82%
    02:00 -2°C° 0 mm 3 mps 758 mmHg 82%
    03:00 -2°C° 0 mm 3 mps 758 mmHg 82%
    04:00 -2°C° 0 mm 3 mps 758 mmHg 82%
    05:00 -2°C° 0 mm 3 mps 758 mmHg 82%
    06:00 -4°C° 0 mm 3 mps 758 mmHg 83%
    07:00 -4°C° 0 mm 3 mps 758 mmHg 83%
    08:00 -2°C° 0 mm 3 mps 759 mmHg 78%
    09:00 -1°C° 0 mm 3 mps 759 mmHg 73%
    10:00 -1°C° 0 mm 4 mps 759 mmHg 68%
    11:00 0°C° 0 mm 4 mps 759 mmHg 65%
    12:00 +1°C° 0 mm 4 mps 759 mmHg 62%
    13:00 +1°C° 0 mm 4 mps 759 mmHg 59%
    14:00 +1°C° 0 mm 4 mps 759 mmHg 63%
    15:00 +1°C° 0 mm 3 mps 758 mmHg 67%
    16:00 0°C° 0 mm 3 mps 758 mmHg 72%
    17:00 0°C° 0 mm 3 mps 758 mmHg 73%
    18:00 0°C° 0 mm 3 mps 759 mmHg 74%
    19:00 0°C° 0 mm 3 mps 759 mmHg 75%
    20:00 -1°C° 0.2 mm 3 mps 759 mmHg 76%
    21:00 -1°C° 0.2 mm 3 mps 759 mmHg 77%
    22:00 -1°C° 0.2 mm 3 mps 759 mmHg 77%
    23:00 -1°C° 0.3 mm 3 mps 758 mmHg 79%

    Day after tomorrow, 15 December, Saturday

    Time Temperature Precipitation Wind Pressure Humidity
    00:00 -1°C° 0.3 mm 3 mps 758 mmHg 80%
    01:00 -1°C° 0.3 mm 3 mps 758 mmHg 81%
    02:00 -2°C° 0.4 mm 4 mps 758 mmHg 83%
    03:00 -2°C° 0.4 mm 4 mps 758 mmHg 85%
    04:00 -2°C° 0.4 mm 4 mps 757 mmHg 87%
    05:00 -2°C° 0.6 mm 4 mps 757 mmHg 88%
    06:00 -2°C° 0.6 mm 4 mps 757 mmHg 89%
    07:00 -2°C° 0.6 mm 4 mps 757 mmHg 89%
    08:00 -2°C° 0.6 mm 4 mps 757 mmHg 89%
    09:00 -2°C° 0.6 mm 4 mps 758 mmHg 89%
    10:00 -2°C° 0.6 mm 4 mps 758 mmHg 88%
    11:00 -2°C° 0.6 mm 4 mps 757 mmHg 89%
    12:00 -2°C° 0.6 mm 4 mps 757 mmHg 91%
    13:00 -1°C° 0.6 mm 3 mps 757 mmHg 92%
    14:00 -1°C° 0.5 mm 3 mps 757 mmHg 93%
    15:00 -1°C° 0.5 mm 3 mps 757 mmHg 93%
    16:00 -1°C° 0.5 mm 3 mps 757 mmHg 94%
    17:00 -1°C° 0.4 mm 3 mps 757 mmHg 94%
    18:00 -1°C° 0.4 mm 3 mps 757 mmHg 94%
    19:00 -1°C° 0.4 mm 3 mps 757 mmHg 94%
    20:00 -1°C° 0.3 mm 3 mps 757 mmHg 94%
    21:00 -1°C° 0.3 mm 3 mps 757 mmHg 94%
    22:00 -2°C° 0.3 mm 3 mps 757 mmHg 94%
    23:00 -2°C° 0.2 mm 3 mps 757 mmHg 94%

    16 December, Sunday

    Time Temperature Precipitation Wind Pressure Humidity
    00:00 -2°C° 0.2 mm 3 mps 757 mmHg 94%
    01:00 -2°C° 0.2 mm 3 mps 757 mmHg 94%
    02:00 -2°C° 0.1 mm 3 mps 757 mmHg 94%
    03:00 -2°C° 0.1 mm 3 mps 757 mmHg 93%
    04:00 -2°C° 0.1 mm 3 mps 757 mmHg 93%
    05:00 -4°C° 0 mm 3 mps 757 mmHg 93%
    06:00 -4°C° 0 mm 3 mps 757 mmHg 93%
    07:00 -3°C° 0 mm 2 mps 758 mmHg 93%
    08:00 -3°C° 0 mm 2 mps 758 mmHg 92%
    09:00 -4°C° 0 mm 3 mps 758 mmHg 91%
    10:00 -2°C° 0 mm 3 mps 759 mmHg 90%
    11:00 -2°C° 0 mm 2 mps 758 mmHg 90%
    12:00 -2°C° 0 mm 2 mps 758 mmHg 90%
    13:00 -2°C° 0 mm 2 mps 758 mmHg 89%
    14:00 -3°C° 0 mm 2 mps 758 mmHg 90%
    15:00 -4°C° 0 mm 2 mps 759 mmHg 91%
    16:00 -5°C° 0 mm 2 mps 759 mmHg 92%
    17:00 -3°C° 0 mm 1 mps 759 mmHg 92%
    18:00 -4°C° 0 mm 1 mps 759 mmHg 92%
    19:00 -4°C° 0 mm 1 mps 759 mmHg 92%
    20:00 -4°C° 0 mm 1 mps 759 mmHg 92%
    21:00 -4°C° 0 mm 1 mps 759 mmHg 92%
    22:00 -6°C° 0 mm 1 mps 759 mmHg 92%
    23:00 -6°C° 0 mm 1 mps 760 mmHg 92%

    17 December, Monday

    Time Temperature Precipitation Wind Pressure Humidity
    00:00 -6°C° 0 mm 1 mps 760 mmHg 92%
    01:00 -6°C° 0 mm 1 mps 760 mmHg 92%
    02:00 -6°C° 0 mm 1 mps 760 mmHg 92%
    03:00 -6°C° 0 mm 1 mps 759 mmHg 92%
    04:00 -4°C° 0 mm 1 mps 759 mmHg 92%
    05:00 -4°C° 0 mm 1 mps 759 mmHg 92%
    06:00 -4°C° 0 mm 1 mps 760 mmHg 92%
    07:00 -4°C° 0 mm 1 mps 760 mmHg 92%
    08:00 -4°C° 0 mm 0 mps 760 mmHg 90%
    09:00 -4°C° 0 mm 0 mps 760 mmHg 89%
    10:00 -3°C° 0 mm 0 mps 760 mmHg 87%
    11:00 -2°C° 0 mm 0 mps 760 mmHg 87%
    12:00 -2°C° 0 mm 0 mps 760 mmHg 86%
    13:00 -1°C° 0 mm 0 mps 760 mmHg 85%
    14:00 -2°C° 0 mm 0 mps 761 mmHg 87%
    15:00 -3°C° 0 mm 0 mps 761 mmHg 89%
    16:00 -4°C° 0 mm 0 mps 761 mmHg 91%
    17:00 -4°C° 0 mm 0 mps 761 mmHg 91%
    18:00 -3°C° 0 mm 1 mps 761 mmHg 90%
    19:00 -3°C° 0 mm 1 mps 762 mmHg 90%
    20:00 -3°C° 0 mm 1 mps 762 mmHg 90%
    21:00 -3°C° 0 mm 1 mps 762 mmHg 90%
    22:00 -3°C° 0 mm 1 mps 762 mmHg 90%
    23:00 -3°C° 0 mm 1 mps 762 mmHg 90%

    18 December, Tuesday

    Time Temperature Precipitation Wind Pressure Humidity
    00:00 -3°C° 0 mm 1 mps 762 mmHg 90%
    01:00 -4°C° 0 mm 0 mps 762 mmHg 90%
    02:00 -3°C° 0 mm 1 mps 762 mmHg 90%
    03:00 -3°C° 0 mm 1 mps 762 mmHg 90%
    04:00 -3°C° 0 mm 1 mps 762 mmHg 90%
    05:00 -4°C° 0 mm 1 mps 762 mmHg 90%
    06:00 -4°C° 0 mm 1 mps 762 mmHg 91%
    07:00 -4°C° 0 mm 1 mps 762 mmHg 91%
    08:00 -3°C° 0 mm 1 mps 763 mmHg 90%
    09:00 -3°C° 0 mm 1 mps 763 mmHg 90%
    10:00 -2°C° 0 mm 1 mps 763 mmHg 89%
    11:00 -1°C° 0 mm 1 mps 763 mmHg 89%
    12:00 -1°C° 0 mm 1 mps 762 mmHg 88%
    13:00 -1°C° 0 mm 0 mps 762 mmHg 87%
    14:00 -2°C° 0 mm 0 mps 762 mmHg 89%
    15:00 -3°C° 0 mm 0 mps 762 mmHg 91%
    16:00 -4°C° 0 mm 0 mps 762 mmHg 93%
    17:00 -4°C° 0 mm 1 mps 762 mmHg 93%
    18:00 -4°C° 0 mm 1 mps 762 mmHg 93%
    19:00 -4°C° 0 mm 1 mps 762 mmHg 94%
    20:00 -4°C° 0 mm 1 mps 762 mmHg 94%
    21:00 -4°C° 0 mm 1 mps 762 mmHg 94%
    22:00 -6°C° 0 mm 1 mps 762 mmHg 95%
    23:00 -6°C° 0 mm 1 mps 762 mmHg 95%
    Show more